Analise da corrida

 :: S59

Ver o tópico anterior Ver o tópico seguinte Ir em baixo

Analise da corrida

Mensagem por hugueta em Seg Jul 03, 2017 10:47 pm

Análise da corrida: Yeongam (Coreia do Sul) - Época 59 - Corrida 11

Dados das voltas de treino
Volta Tempo volta Erro Piloto Tempo teórico Configurações
AsaD AsaT Motor Trav Caixa Susp Pneus Com.
1 1:44.373s 0.105s 1:44.268s 843 843 616 700 615 542 Médios
Comentários do piloto na volta de treino 1:

Estou satisfeito com a afinação do carro


Informação de voltas e desgaste
Nível das peças
Cha Mot ADiant ATras Carroç Later Refrig Caixa Trav Susp Elec
5 5 5 5 5 5 5 5 5 5 5
Desgaste das Peças (no início)
45% 0% 0% 0% 0% 45% 52% 66% 0% 20% 0%
Desgaste das Peças (no final)
63% 31% 19% 21% 13% 59% 66% 82% 20% 37% 12%
Volta Tempo de volta Pos Pneus Tempo Temp Hum Eventos
0 - 11 Médios Parcial/nublado 19° 22% -
1 1:53.907 15 Médios Parcial/nublado 19° 22% -
2 1:44.802 14 Médios Parcial/nublado 19° 22% -
3 1:44.628 14 Médios Parcial/nublado 19° 22% -
4 1:44.997 14 Médios Parcial/nublado 19° 22% -
5 1:44.540 13 Médios Parcial/nublado 19° 22% -
6 1:44.824 13 Médios Parcial/nublado 19° 22% -
7 1:44.606 13 Médios Parcial/nublado 19° 22% -
8 1:44.582 13 Médios Parcial/nublado 19° 22% -
9 1:44.476 13 Médios Parcial/nublado 19° 22% -
10 1:44.013 13 Médios Parcial/nublado 20° 22% -
11 1:43.749 13 Médios Parcial/nublado 21° 22% -
12 1:42.977 13 Médios Parcial/nublado 22° 22% -
13 1:42.652 13 Médios Parcial/nublado 23° 22% -
14 1:42.449 12 Médios Parcial/nublado 23° 22% -
15 1:43.398 6 Médios Parcial/nublado 23° 22% -
16 1:43.338 5 Médios Parcial/nublado 23° 22% -
17 1:43.088 4 Médios Parcial/nublado 23° 22% -
18 1:42.910 3 Médios Parcial/nublado 23° 22% -
19 1:55.049 7 Médios Parcial/nublado 23° 22% Pit
20 2:21.580 17 Médios Parcial/nublado 23° 22% -
21 1:44.301 17 Médios Parcial/nublado 24° 23% -
22 1:44.038 16 Médios Parcial/nublado 24° 23% -
23 1:43.816 15 Médios Parcial/nublado 25° 23% -
24 1:45.000 14 Médios Parcial/nublado 26° 23% -
25 1:44.873 14 Médios Parcial/nublado 26° 23% -
26 1:43.779 13 Médios Parcial/nublado 26° 23% -
27 1:43.330 13 Médios Parcial/nublado 26° 23% -
28 1:43.685 11 Médios Parcial/nublado 26° 23% -
29 1:43.475 8 Médios Parcial/nublado 26° 23% -
30 1:42.315 8 Médios Parcial/nublado 26° 23% -
31 1:42.084 7 Médios Parcial/nublado 26° 23% -
32 1:42.423 7 Médios Parcial/nublado 26° 23% -
33 1:42.769 7 Médios Parcial/nublado 26° 23% -
34 1:42.891 6 Médios Parcial/nublado 26° 23% -
35 1:43.013 5 Médios Parcial/nublado 26° 23% -
36 1:42.746 5 Médios Parcial/nublado 26° 23% -
37 1:42.433 5 Médios Parcial/nublado 26° 23% -
38 1:54.062 6 Médios Parcial/nublado 26° 23% Pit
39 2:21.517 14 Médios Parcial/nublado 26° 23% -
40 1:43.709 14 Médios Parcial/nublado 26° 23% -
41 1:43.440 13 Médios Parcial/nublado 26° 23% -
42 1:43.438 13 Médios Parcial/nublado 26° 23% -
43 1:43.743 11 Médios Parcial/nublado 25° 23% -
44 1:43.561 10 Médios Parcial/nublado 24° 22% -
45 1:43.684 10 Médios Parcial/nublado 23° 22% -
46 1:43.859 9 Médios Parcial/nublado 22° 22% -
47 1:43.513 8 Médios Parcial/nublado 21° 22% -
48 1:43.572 8 Médios Parcial/nublado 21° 22% -
49 1:42.180 8 Médios Parcial/nublado 22° 22% -
50 1:42.201 8 Médios Parcial/nublado 22° 22% -
51 1:42.498 7 Médios Parcial/nublado 22° 22% -
52 1:42.806 6 Médios Parcial/nublado 23° 22% -
53 1:42.727 6 Médios Parcial/nublado 23° 21% -
54 1:42.862 6 Médios Parcial/nublado 23° 21% -
55 1:42.624 5 Médios Parcial/nublado 23° 21% -

Descarregar a análise da corrida em Excel

Informação da corrida
Voltas
Qualificação 1 Qualificação 2
1:44.535s 1:46.259s

Afinações usadas
Sessão ADiant ATras Mot Trav Caixa Susp Pneus
Q1 843 843 616 700 615 542 Médios
Q2 828 828 627 682 627 560 Médios
Corrida 848 848 613 706 611 536 Médios

Riscos usados
Riscos na partida
Ultrapassar onde for possível
Ultrapassagem Defesa Pista Livre e Seca Pista Livre e Chuva Avaria
0 0 12 0 0

Atributos do piloto
Nome Piloto VG Conc Tal Agre Exper C.Téc Res Car Motiv Rep Peso
Lorenzo Bertaggia 116 205 118 0 116 157 83 140 46 0 57
(+3) (0) (0) (0) (+1) (0) (0) (+1) (+38) (0) (0)

Energia do Piloto
100% 69%

Posições
Início Final
11 5
Carácter do carro
Potência Manobrabilidade Aceleração
67 67 66

Fornecedor de pneus
Pipirelli Pipirelli
Temperatura óptima:
34°
Desempenho em seco:

Desempenho em molhado:

Durabilidade:

Distância de aquecimento:


Tempo da sessão
Treinos / Qualificação 1 Qualificação 2 / Início da corrida
Parcialmente nublado
Temp: 22°C
Humidade: 20% Parcialmente nublado
Temp: 19°C
Humidade: 22%
Previsão para a corrida
Início - 0h30m 0h30m - 1h
Temp: 20° - 23°
Humidade: 21% - 29%
Probabilidade chuva: 0% Temp: 21° - 26°
Humidade: 23% - 32%
Probabilidade chuva: 0%
1h - 1h30m 1h30m - 2h
Temp: 21° - 25°
Humidade: 22% - 32%
Probabilidade chuva: 0% Temp: 19° - 22°
Humidade: 20% - 29%
Probabilidade chuva: 0%


Combustível inicíal: 73 litros

Pit Razão Pit Condição pneus
Combustível restante Reabastecido até Tempos de pit
Paragem 1
(Volta 19) Não havia mais combustível 27% 0% 73 litros 24.944s
Paragem 2
(Volta 38) Não havia mais combustível 23% 0% 76 litros 25.479s

Condição dos pneus no final: 33%

Combustível restante no carro após final: 10 litros

hugueta

Mensagens : 494
Data de inscrição : 30/09/2014
Idade : 41
Localização : Lx

Ver perfil do usuário

Voltar ao Topo Ir em baixo

Re: Analise da corrida

Mensagem por Gabriel Miranda em Seg Jul 10, 2017 11:09 pm

Yeongam (South Korea), Época 59


Volta Tempo volta Pos Pneus Tempo Temp (°) Hum (%) Ocorrências
0 - 5 Duros Parcial/nublado 19 22 -
1 1:49.985 8 Duros Parcial/nublado 19 22 -
2 1:44.371 8 Duros Parcial/nublado 19 22 -
3 1:44.147 8 Duros Parcial/nublado 19 22 -
4 1:44.103 8 Duros Parcial/nublado 19 22 -
5 1:43.861 8 Duros Parcial/nublado 19 22 -
6 1:44.013 8 Duros Parcial/nublado 19 22 -
7 1:43.814 8 Duros Parcial/nublado 19 22 -
8 1:43.663 8 Duros Parcial/nublado 19 22 -
9 1:43.667 8 Duros Parcial/nublado 19 22 -
10 1:43.537 8 Duros Parcial/nublado 20 22 -
11 1:43.268 8 Duros Parcial/nublado 21 22 -
12 1:43.187 8 Duros Parcial/nublado 22 22 -
13 1:43.021 8 Duros Parcial/nublado 23 22 -
14 1:42.680 8 Duros Parcial/nublado 23 22 -
15 1:42.465 8 Duros Parcial/nublado 23 22 -
16 1:42.577 8 Duros Parcial/nublado 23 22 -
17 1:42.490 7 Duros Parcial/nublado 23 22 -
18 1:42.618 5 Duros Parcial/nublado 23 22 -
19 1:42.531 5 Duros Parcial/nublado 23 22 -
20 1:42.350 2 Duros Parcial/nublado 23 22 -
21 1:42.220 2 Duros Parcial/nublado 24 23 -
22 1:40.937 1 Duros Parcial/nublado 24 23 -
23 1:40.266 1 Duros Parcial/nublado 25 23 -
24 1:41.089 1 Duros Parcial/nublado 26 23 -
25 1:41.365 1 Duros Parcial/nublado 26 23 -
26 1:41.555 1 Duros Parcial/nublado 26 23 -
27 1:53.960 1 Duros Parcial/nublado 26 23 Pit
28 2:19.641 5 Duros Parcial/nublado 26 23 -
29 1:43.277 5 Duros Parcial/nublado 26 23 -
30 1:43.032 5 Duros Parcial/nublado 26 23 -
31 1:43.188 5 Duros Parcial/nublado 26 23 -
32 1:42.920 5 Duros Parcial/nublado 26 23 -
33 1:43.021 5 Duros Parcial/nublado 26 23 -
34 1:42.633 5 Duros Parcial/nublado 26 23 -
35 1:42.611 5 Duros Parcial/nublado 26 23 -
36 1:42.549 5 Duros Parcial/nublado 26 23 -
37 1:42.575 4 Duros Parcial/nublado 26 23 -
38 1:42.542 3 Duros Parcial/nublado 26 23 -
39 1:42.151 2 Duros Parcial/nublado 26 23 -
40 1:42.030 2 Duros Parcial/nublado 26 23 -
41 1:41.887 2 Duros Parcial/nublado 26 23 -
42 1:42.189 2 Duros Parcial/nublado 26 23 -
43 1:41.924 1 Duros Parcial/nublado 25 23 -
44 1:41.812 1 Duros Parcial/nublado 24 22 -
45 1:42.201 1 Duros Parcial/nublado 23 22 -
46 1:41.867 1 Duros Parcial/nublado 22 22 -
47 1:41.948 1 Duros Parcial/nublado 21 22 -
48 1:41.834 1 Duros Parcial/nublado 21 22 -
49 1:41.128 1 Duros Parcial/nublado 22 22 -
50 1:41.266 1 Duros Parcial/nublado 22 22 -
51 1:40.227 1 Duros Parcial/nublado 22 22 -
52 1:41.137 1 Duros Parcial/nublado 23 22 -
53 1:41.578 1 Duros Parcial/nublado 23 21 -
54 1:42.286 1 Duros Parcial/nublado 23 21 -
55 1:42.676 1 Duros Parcial/nublado 23 21 -


Riscos usados:
Ultrapassagem Defesa Pista Livre e Seca Pista Livre e Chuva Avaria
20 20 40 0 0

Afinação usada:
Asa Dianteira Asa Traseira Motor Travões Caixa Suspensão
736 728 622 651 509 537

Cha Mot ADiant ATras Carroç Later Refrig Caixa Trav Susp Elec
Nível das peças: 7 6 7 7 7 7 7 6 7 7 7
Desgaste das Peças (no início) (%): 17 35 56 60 46 67 0 0 33 50 33
Desgaste das Peças (no final) (%): 36 67 76 83 60 82 15 16 55 68 46

Combustível inicíal (litros): 103

Pit Razão da paragem Estado pneus (%) Combust. restante (%) Reabast. até (litros) Tempo da paragem (seg)
Paragem 1 (Volta 27): Não havia mais combustível 15 1 110 litros 24.038

Estado dos pneus após o final (%): 10

Combustível restante no final (litros): 5
avatar
Gabriel Miranda

Mensagens : 927
Data de inscrição : 29/12/2014
Idade : 44

Ver perfil do usuário

Voltar ao Topo Ir em baixo

Re: Analise da corrida

Mensagem por Paulo Coutinho em Ter Jul 11, 2017 11:25 am

Yeongam (South Korea), Season 59


Lap Lap time Pos Tyres Weather Temp (°) Hum (%) Events
0 - 31 Medium Partially Cloudy 19 22 -
1 1:58.155 32 Medium Partially Cloudy 19 22 -
2 1:44.323 32 Medium Partially Cloudy 19 22 -
3 1:43.188 32 Medium Partially Cloudy 19 22 -
4 1:44.126 32 Medium Partially Cloudy 19 22 -
5 1:43.610 32 Medium Partially Cloudy 19 22 -
6 1:43.806 32 Medium Partially Cloudy 19 22 -
7 1:43.561 32 Medium Partially Cloudy 19 22 -
8 1:43.871 34 Medium Partially Cloudy 19 22 -
9 1:43.177 33 Medium Partially Cloudy 19 22 -
10 1:42.597 33 Medium Partially Cloudy 20 22 -
11 1:43.075 32 Medium Partially Cloudy 21 22 -
12 1:42.719 32 Medium Partially Cloudy 22 22 -
13 1:42.660 31 Medium Partially Cloudy 23 22 -
14 1:43.283 31 Medium Partially Cloudy 23 22 -
15 1:42.766 31 Medium Partially Cloudy 23 22 -
16 1:42.838 31 Medium Partially Cloudy 23 22 -
17 1:43.105 31 Medium Partially Cloudy 23 22 -
18 1:43.129 31 Medium Partially Cloudy 23 22 -
19 1:42.116 27 Medium Partially Cloudy 23 22 -
20 1:42.227 20 Medium Partially Cloudy 23 22 -
21 1:42.634 20 Medium Partially Cloudy 24 23 -
22 1:42.231 17 Medium Partially Cloudy 24 23 -
23 1:41.830 17 Medium Partially Cloudy 25 23 -
24 1:42.106 17 Medium Partially Cloudy 26 23 -
25 1:42.227 18 Medium Partially Cloudy 26 23 -
26 1:42.078 17 Medium Partially Cloudy 26 23 -
27 1:42.410 21 Medium Partially Cloudy 26 23 -
28 2:01.868 27 Medium Partially Cloudy 26 23 Driver mistake, Pit
29 2:16.690 34 Medium Partially Cloudy 26 23 -
30 1:42.675 32 Medium Partially Cloudy 26 23 -
31 1:42.321 32 Medium Partially Cloudy 26 23 -
32 1:42.733 32 Medium Partially Cloudy 26 23 -
33 1:43.025 32 Medium Partially Cloudy 26 23 -
34 1:43.039 32 Medium Partially Cloudy 26 23 -
35 1:42.613 32 Medium Partially Cloudy 26 23 -
36 1:43.276 32 Medium Partially Cloudy 26 23 -
37 1:42.412 31 Medium Partially Cloudy 26 23 -
38 1:42.616 30 Medium Partially Cloudy 26 23 -
39 1:42.328 28 Medium Partially Cloudy 26 23 -
40 1:41.212 26 Medium Partially Cloudy 26 23 -
41 1:41.781 26 Medium Partially Cloudy 26 23 -
42 1:41.641 26 Medium Partially Cloudy 26 23 -
43 1:41.598 26 Medium Partially Cloudy 25 23 -
44 1:41.508 26 Medium Partially Cloudy 24 22 -
45 1:41.448 26 Medium Partially Cloudy 23 22 -
46 1:41.288 26 Medium Partially Cloudy 22 22 -
47 1:41.178 26 Medium Partially Cloudy 21 22 -
48 1:42.128 26 Medium Partially Cloudy 21 22 -
49 1:41.792 26 Medium Partially Cloudy 22 22 -
50 1:41.489 26 Medium Partially Cloudy 22 22 -
51 1:41.764 25 Medium Partially Cloudy 22 22 -
52 1:41.106 25 Medium Partially Cloudy 23 22 -
53 1:41.357 24 Medium Partially Cloudy 23 21 -
54 1:41.588 24 Medium Partially Cloudy 23 21 -
55 1:42.086 23 Medium Partially Cloudy 23 21 -


Risks used:
Overtake Defend Clear & dry Clear & wet Malfunct
10 50 10 0 0

Setup used:
Front wing Rear wing Engine Brakes Gear Suspension
897 847 692 713 502 601

Cha Eng FWing RWing Underb Sidep Cool Gear Bra Susp Elec
Car parts level: 7 7 7 7 7 8 8 7 7 7 8
Car parts wear (at the start) (%): 45 38 81 77 53 41 60 0 33 63 15
Car parts wear (at the finish) (%): 62 71 99 97 65 55 75 15 52 79 27

Start fuel (liters): 102

Pit Pitstop reason Tyres condition (%) Fuel left (%) Refilled to (liters) Pit time (sec)
Stop 1 (Lap 28): No more fuel was left 8 1 102 liters 21.628

Tyres condition after finish (%): 9

Fuel left in the car after finish (liters): 7

Driver energy
94% 75%

_________________
Paulo Coutinho
avatar
Paulo Coutinho

Mensagens : 1715
Data de inscrição : 31/03/2015
Idade : 44

Ver perfil do usuário

Voltar ao Topo Ir em baixo

Re: Analise da corrida

Mensagem por Jorge Frade em Seg Jul 24, 2017 1:50 am

Race analysis: Yeongam (South Korea) - Season 59 - Race 11

Practice laps data
Lap Lap time Driver mistake Net time Settings
FWing RWing Engine Brakes Gear Susp Tyres Comm
1 1:43.904s 0.430s 1:43.474s 889 889 602 759 589 512 Extra Soft
2 1:44.880s 0.272s 1:44.608s 889 889 602 759 589 512 Medium
3 1:45.180s 0.005s 1:45.175s 889 889 602 759 589 512 Hard
Practice lap 3 comments from your driver:

I am satisfied with the setup of the car


Car wear & lap information
Car parts level
Cha Eng FWing RWing Underb Sidep Cool Gear Bra Susp Elec
5 4 5 5 5 5 5 4 4 4 5
Car parts wear (at the start)
0% 0% 0% 0% 0% 0% 0% 0% 0% 0% 0%
Car parts wear (at the finish)
21% 33% 22% 25% 16% 17% 17% 20% 25% 21% 14%
Lap Lap time Pos Tyres Weather Temp Hum Events
0 - 16 Medium Partially Cloudy 19° 22% -
1 1:51.415 13 Medium Partially Cloudy 19° 22% -
2 1:45.201 13 Medium Partially Cloudy 19° 22% -
3 1:44.115 13 Medium Partially Cloudy 19° 22% -
4 1:44.059 13 Medium Partially Cloudy 19° 22% -
5 1:45.877 14 Medium Partially Cloudy 19° 22% -
6 1:44.525 14 Medium Partially Cloudy 19° 22% -
7 1:45.712 14 Medium Partially Cloudy 19° 22% -
8 1:44.346 14 Medium Partially Cloudy 19° 22% -
9 1:44.794 14 Medium Partially Cloudy 19° 22% -
10 1:44.201 14 Medium Partially Cloudy 20° 22% -
11 1:44.141 14 Medium Partially Cloudy 21° 22% -
12 1:44.142 12 Medium Partially Cloudy 22° 22% -
13 1:44.331 13 Medium Partially Cloudy 23° 22% -
14 1:43.279 10 Medium Partially Cloudy 23° 22% -
15 1:42.350 9 Medium Partially Cloudy 23° 22% -
16 1:42.518 8 Medium Partially Cloudy 23° 22% -
17 1:42.771 8 Medium Partially Cloudy 23° 22% -
18 1:43.117 7 Medium Partially Cloudy 23° 22% -
19 1:54.478 5 Medium Partially Cloudy 23° 22% Pit
20 2:23.035 17 Medium Partially Cloudy 23° 22% -
21 1:43.812 17 Medium Partially Cloudy 24° 23% -
22 1:43.628 16 Medium Partially Cloudy 24° 23% -
23 1:43.624 14 Medium Partially Cloudy 25° 23% -
24 1:43.175 14 Medium Partially Cloudy 26° 23% -
25 1:43.240 13 Medium Partially Cloudy 26° 23% -
26 1:43.167 12 Medium Partially Cloudy 26° 23% -
27 1:43.200 9 Medium Partially Cloudy 26° 23% -
28 1:42.952 9 Medium Partially Cloudy 26° 23% -
29 1:42.859 9 Medium Partially Cloudy 26° 23% -
30 1:42.913 9 Medium Partially Cloudy 26° 23% -
31 1:42.742 9 Medium Partially Cloudy 26° 23% -
32 1:42.622 9 Medium Partially Cloudy 26° 23% -
33 1:42.545 9 Medium Partially Cloudy 26° 23% -
34 1:42.385 8 Medium Partially Cloudy 26° 23% -
35 1:42.150 6 Medium Partially Cloudy 26° 23% -
36 1:43.511 6 Medium Partially Cloudy 26° 23% -
37 1:43.686 5 Medium Partially Cloudy 26° 23% -
38 1:43.266 4 Medium Partially Cloudy 26° 23% -
39 1:55.517 4 Medium Partially Cloudy 26° 23% Pit
40 2:18.367 9 Medium Partially Cloudy 26° 23% -
41 1:43.471 8 Medium Partially Cloudy 26° 23% -
42 1:43.065 8 Medium Partially Cloudy 26° 23% -
43 1:43.032 8 Medium Partially Cloudy 25° 23% -
44 1:43.103 8 Medium Partially Cloudy 24° 22% -
45 1:43.030 7 Medium Partially Cloudy 23° 22% -
46 1:42.941 7 Medium Partially Cloudy 22° 22% -
47 1:42.882 7 Medium Partially Cloudy 21° 22% -
48 1:42.913 7 Medium Partially Cloudy 21° 22% -
49 1:42.897 7 Medium Partially Cloudy 22° 22% -
50 1:43.073 7 Medium Partially Cloudy 22° 22% -
51 1:43.229 7 Medium Partially Cloudy 22° 22% -
52 1:43.125 7 Medium Partially Cloudy 23° 22% -
53 1:43.656 6 Medium Partially Cloudy 23° 21% -
54 1:43.657 6 Medium Partially Cloudy 23° 21% -
55 1:43.423 5 Medium Partially Cloudy 23° 21% -
avatar
Jorge Frade
Admin

Mensagens : 1045
Data de inscrição : 22/09/2014

Ver perfil do usuário http://frteam.foruns.com.pt

Voltar ao Topo Ir em baixo

Re: Analise da corrida

Mensagem por Conteúdo patrocinado


Conteúdo patrocinado


Voltar ao Topo Ir em baixo

Ver o tópico anterior Ver o tópico seguinte Voltar ao Topo

- Tópicos similares

 :: S59

 
Permissão deste fórum:
Você não pode responder aos tópicos neste fórum